Location: *
(46.0765°S, 178.2400°W)
Time: 04:59:57
(UTC+00:00)

Daily predictions for brighter satellites

Satellite Brightness Start Highest point End
(mag) Time Altitude Azimuth Time Altitude Azimuth Time Altitude Azimuth
Meteor 1-26 Rocket 4.4 04:41:45 10° SSW 04:47:34 87° W 04:53:08 10° N
STARLINK-1273 4.2 04:46:14 10° NW 04:50:17 48° NE 04:54:21 10° ESE
STARLINK-1353 4.4 04:47:05 10° SW 04:50:21 28° S 04:53:36 10° ESE
Cosmos 2123 Rocket 4.1 04:44:13 10° S 04:50:23 55° ESE 04:56:30 10° NNE
STARLINK-1320 4.2 04:49:07 10° SW 04:51:53 25° S 04:54:38 10° ESE
STARLINK-1322 4.2 04:49:26 10° SW 04:52:12 25° S 04:54:58 10° ESE
STARLINK-80 3.8 04:48:25 10° WNW 04:52:12 57° SSW 04:56:03 10° SE
STARLINK-1324 4.2 04:49:48 10° SW 04:52:33 25° S 04:55:19 10° ESE
STARLINK-43 4.5 04:49:19 10° WSW 04:52:45 32° SSW 04:56:12 10° SE
STARLINK-1294 4.2 04:50:10 10° SW 04:52:53 25° S 04:55:36 10° ESE
STARLINK-1261 4.2 04:50:28 10° SW 04:53:14 26° S 04:55:59 10° ESE
Cosmos 1812 4.0 04:50:21 10° SSE 04:53:23 21° ESE 04:56:23 10° ENE
STARLINK-1375 4.4 04:50:06 10° SW 04:53:24 29° S 04:56:42 10° ESE
STARLINK-1325 4.2 04:50:47 10° SW 04:53:33 26° S 04:56:18 10° ESE
Cosmos 1538 Rocket 4.0 04:48:30 10° NNW 04:53:44 85° ENE 04:59:01 10° SSE
STARLINK-1333 4.2 04:51:10 10° SW 04:53:56 26° S 04:56:42 10° ESE
STARLINK-1334 4.2 04:51:29 10° SW 04:54:15 26° S 04:57:01 10° ESE
COSMOS 2428 3.3 04:49:07 10° N 04:54:27 41° ENE 04:59:50 10° SE
STARLINK-1326 4.2 04:51:50 10° SW 04:54:36 26° S 04:57:22 10° ESE
USA 234 3.4 04:48:10 10° SE 04:54:49 82° SW 05:01:26 10° WNW
STARLINK-1323 4.2 04:52:09 10° SW 04:54:55 26° S 04:57:41 10° ESE
Cosmos 1461 4.0 04:51:43 10° SSW 04:54:58 23° SE 04:58:10 10° E
STARLINK-1288 4.1 04:51:08 10° NW 04:55:12 52° NE 04:59:19 10° ESE
STARLINK-1349 4.2 04:52:31 10° SW 04:55:17 26° S 04:58:04 10° ESE
STARLINK-1336 4.2 04:52:50 10° SW 04:55:37 26° S 04:58:23 10° ESE
STARLINK-1350 4.4 04:52:30 10° SW 04:55:48 29° S 04:59:04 10° ESE
STARLINK-1331 4.2 04:53:13 10° SW 04:56:00 26° S 04:58:46 10° ESE
STARLINK-1344 4.2 04:53:34 10° SW 04:56:21 26° S 04:59:07 10° ESE
STARLINK-1343 4.2 04:53:51 10° SW 04:56:37 26° S 04:59:24 10° ESE
STARLINK-1346 4.2 04:54:17 10° SW 04:57:01 26° S 04:59:45 10° ESE
STARLINK-1328 4.2 04:54:31 10° SW 04:57:19 26° SSE 05:00:05 10° ESE
STARLINK-1354 4.2 04:54:51 10° SW 04:57:38 26° S 05:00:25 10° ESE
STARLINK-1347 4.2 04:55:13 10° SW 04:58:00 26° SSE 05:00:47 10° ESE
ADEOS Rocket 3.7 04:50:29 10° NNE 04:58:06 83° ESE 05:06:01 10° SSW
STARLINK-1357 4.2 04:55:33 10° SW 04:58:20 26° SSE 05:01:07 10° ESE
STARLINK-1352 4.4 04:55:14 10° SW 04:58:33 29° S 05:01:49 10° ESE
STARLINK-1335 4.2 04:55:56 10° SW 04:58:44 26° SSE 05:01:31 10° ESE
STARLINK-1327 4.2 04:56:12 10° SW 04:59:00 26° SSE 05:01:47 10° ESE
STARLINK-1340 4.2 04:56:33 10° SW 04:59:21 26° SSE 05:02:07 10° ESE
STARLINK-1356 4.2 04:56:54 10° SW 04:59:41 26° SSE 05:02:27 10° ESE
ATLAS 5 CENTAUR R/B 4.1 04:55:09 10° NNE 05:00:00 20° ENE 05:04:39 10° ESE
STARLINK-1345 4.2 04:57:14 10° SW 05:00:02 27° SSE 05:02:47 10° ESE
Cosmos 1515 Rocket 4.1 04:55:36 10° SSW 05:00:03 65° W 05:04:29 10° N
STARLINK-1308 3.9 04:56:06 10° NW 05:00:13 57° NE 05:04:21 10° ESE
STARLINK-1355 4.2 04:57:34 10° SW 05:00:22 27° SSE 05:03:06 10° ESE
STARLINK-1321 4.2 04:57:56 10° SW 05:00:44 27° SSE 05:03:27 10° ESE
STARLINK-1358 4.2 04:58:15 10° SW 05:01:03 27° SSE 05:03:45 11° ESE
STARLINK-1283 4.0 04:57:17 10° W 05:01:03 50° SSW 05:04:50 10° SE
STARLINK-1368 4.4 04:58:00 10° SW 05:01:18 30° S 05:04:33 10° ESE
STARLINK-1332 4.2 04:58:39 10° SW 05:01:28 27° SSE 05:04:08 11° ESE
STARLINK-1348 4.2 04:58:57 10° SW 05:01:45 27° SSE 05:04:25 11° ESE
STARLINK-1330 4.2 04:59:15 10° SW 05:02:04 27° SSE 05:04:43 11° ESE
STARLINK-1311 3.6 04:59:24 10° W 05:02:19 41° SSW 05:05:12 10° SE
Meteor 1-31 Rocket 3.4 04:58:20 10° S 05:02:20 62° WSW 05:06:15 10° NNW
STARLINK-60 3.0 04:59:01 10° WSW 05:02:20 89° SE 05:05:35 10° ENE
STARLINK-1363 4.2 04:59:40 10° SW 05:02:29 27° SSE 05:05:07 11° ESE
STARLINK-1337 4.1 04:59:57 10° SW 05:02:45 27° SSE 05:05:23 11° ESE
STARLINK-1342 4.1 05:00:17 10° SW 05:03:06 27° SSE 05:05:42 11° ESE
STARLINK-1364 4.1 05:00:36 10° SW 05:03:25 27° SSE 05:06:01 11° ESE
STARLINK-1376 4.1 05:00:58 10° SW 05:03:48 27° SSE 05:06:22 11° ESE
STARLINK-1369 4.3 05:00:46 10° SW 05:04:05 30° S 05:07:12 11° ESE
STARLINK-1360 4.1 05:01:17 10° SW 05:04:06 27° SSE 05:06:40 11° ESE
STARLINK-1361 4.1 05:01:37 10° SW 05:04:26 27° SSE 05:06:59 12° ESE
STARLINK-1367 4.1 05:02:00 10° SW 05:04:47 27° SSE 05:07:16 12° ESE
STARLINK-1366 4.1 05:02:21 10° SW 05:05:11 27° SSE 05:07:42 12° ESE
COSMO-SKYMED 1 2.6 05:01:19 10° NNE 05:05:43 89° E 05:10:10 10° SSW
Cosmos 1821 Rocket 4.2 04:59:52 10° NNW 05:06:00 76° W 05:12:16 10° S
STARLINK-1372 4.3 05:03:33 10° SW 05:06:54 31° SSE 05:09:53 12° ESE
STARLINK-61 4.1 05:03:10 10° NNW 05:06:58 45° NE 05:10:27 12° ESE
Cosmos 2237 Rocket 3.5 05:02:59 10° NE 05:07:03 21° E 05:11:03 10° SE
CZ-4B R/B 4.1 05:02:28 10° SE 05:07:10 28° E 05:11:52 10° NNE
STARLINK-42 4.0 05:05:22 10° W 05:08:25 35° SSW 05:11:15 12° SE
STARLINK-1316 3.7 05:05:22 10° W 05:08:26 42° SSW 05:11:15 12° SE
Cosmos 1707 Rocket 4.3 05:04:44 10° S 05:08:46 31° ESE 05:12:43 10° NE
Iridium 96 3.1 05:07:27 10° SSE 05:09:08 39° E 05:10:48 10° NNE
STARLINK-1257 3.7 05:06:18 10° W 05:09:23 42° SSW 05:12:08 12° SE
SL-16 R/B 3.9 05:04:39 10° WNW 05:09:34 29° SW 05:14:32 10° S
STARLINK-1378 4.3 05:06:36 10° SW 05:09:59 32° SSE 05:12:53 13° ESE
STARLINK-1304 3.8 05:05:58 10° NW 05:10:08 66° NE 05:13:54 13° ESE
Cosmos 1633 2.7 05:06:36 10° N 05:10:15 82° W 05:13:57 10° S
STARLINK-1256 3.7 05:07:13 10° W 05:10:16 41° SSW 05:13:00 12° SE
STARLINK-1213 3.8 05:08:07 10° W 05:11:10 41° SSW 05:13:52 13° SE
STARLINK-1263 3.8 05:09:01 10° W 05:12:05 41° SSW 05:14:44 13° SE
STARLINK-1329 4.3 05:08:53 10° SW 05:12:16 32° SSE 05:15:02 14° ESE
STARLINK-1286 3.7 05:08:12 10° NW 05:12:24 72° NE 05:16:08 13° ESE
STARLINK-1379 4.3 05:09:09 10° SW 05:12:32 32° SSE 05:15:17 14° ESE
STARLINK-1259 3.8 05:09:55 10° W 05:12:58 40° SSW 05:15:35 13° SE
STARLINK-1265 3.8 05:10:28 10° W 05:13:29 40° SSW 05:16:03 13° SE
Cosmos 2228 Rocket 3.3 05:09:12 10° S 05:13:50 84° W 05:18:20 10° N
STARLINK-1285 3.8 05:10:50 10° W 05:13:52 40° SSW 05:16:27 13° SE
STARLINK-1268 3.8 05:11:28 10° W 05:14:30 39° SSW 05:17:02 13° SE
STARLINK-1362 4.3 05:12:03 10° SW 05:15:30 33° SSE 05:18:12 14° ESE
STARLINK-1296 3.8 05:12:40 10° W 05:15:43 39° SSW 05:18:13 14° SE
STARLINK-1365 4.2 05:12:17 10° SW 05:15:44 33° SSE 05:18:26 15° ESE
STARLINK-1260 3.9 05:13:35 10° W 05:16:36 38° SSW 05:19:04 14° SE
STARLINK-1318 3.9 05:14:31 10° W 05:17:32 38° SSW 05:19:57 14° SE
Cosmos 1371 Rocket 4.5 05:12:58 10° S 05:18:09 41° ESE 05:23:14 10° NE
STARLINK-1373 4.2 05:14:52 10° SW 05:18:19 33° SSE 05:20:50 16° ESE
STARLINK-1275 3.9 05:15:22 10° W 05:18:23 38° SSW 05:20:46 14° SE
USA 116 4.4 05:14:08 10° NNE 05:18:56 64° ESE 05:24:12 10° S
STARLINK-1309 3.9 05:16:16 10° W 05:19:17 37° SSW 05:21:39 15° SE
STARLINK-1282 3.9 05:17:13 10° W 05:20:13 37° SSW 05:22:32 15° SE
Cosmos 1934 Rocket 4.1 05:14:13 10° N 05:20:35 87° E 05:27:05 10° S
STARLINK-1390 4.2 05:17:33 10° SW 05:20:58 34° SSE 05:23:23 17° ESE
STARLINK-1313 4.0 05:18:19 10° W 05:21:17 34° SSW 05:23:32 15° SE
STARLINK-62 3.7 05:18:26 10° W 05:21:34 45° SSW 05:23:57 16° SE
STARLINK-1279 4.0 05:19:18 10° W 05:22:16 34° SSW 05:24:28 15° SE
STARLINK-1298 4.0 05:19:55 10° W 05:22:55 36° SSW 05:25:07 16° SE
STARLINK-1029 3.4 05:19:49 10° WNW 05:22:58 53° SSW 05:25:14 17° SE
STARLINK-34 3.7 05:20:24 10° W 05:23:32 44° SSW 05:25:50 16° SE
STARLINK-1293 4.0 05:20:52 10° W 05:23:51 36° SSW 05:26:02 16° SE
Cosmos 158 Rocket 4.3 05:19:40 10° N 05:24:37 47° ENE 05:29:44 10° SSE
STARLINK-1301 4.2 05:21:33 10° W 05:24:53 38° SSW 05:27:22 16° SE
STARLINK-55 4.3 05:22:32 10° WSW 05:25:28 29° SSW 05:27:31 16° SE
STARLINK-1255 4.0 05:22:40 10° W 05:25:40 35° SSW 05:27:44 17° SE
STARLINK-1299 3.7 05:22:00 10° WNW 05:26:20 85° SSW 05:29:38 17° ESE
Cosmos 1743 Rocket 4.4 05:22:18 10° NNW 05:26:37 53° WSW 05:31:02 10° S
STARLINK-1306 3.7 05:22:32 10° WNW 05:26:48 89° NE 05:30:00 18° ESE
Cosmos 2333 Rocket 2.2 05:21:08 10° NNW 05:26:56 83° ENE 05:32:46 10° SSE
Cosmos 405 2.9 05:23:29 10° S 05:27:05 64° ESE 05:30:35 10° NNE
Cosmos 2112 Rocket 4.3 05:22:58 10° N 05:28:05 51° ENE 05:33:15 10° SSE
STARLINK-1307 4.1 05:24:53 10° W 05:28:15 39° SSW 05:30:38 17° SE
Okean O Rocket 2.2 05:24:37 10° SSE 05:28:48 38° E 05:32:58 10° NNE
H-2A R/B 3.4 05:25:37 10° SSE 05:29:15 36° E 05:32:52 10° NNE
Meteor 1-10 Rocket 4.2 05:24:12 10° S 05:29:55 78° ESE 05:35:39 10° NNE
STARLINK-1281 3.6 05:25:49 10° WNW 05:30:01 88° NNE 05:33:02 19° ESE
FENGYUN 3A 4.3 05:24:48 10° S 05:30:12 59° WSW 05:35:32 10° NNW
Cosmos 2278 Rocket 2.4 05:24:56 10° SSW 05:30:31 51° ESE 05:36:02 10° NE
STARLINK-1290 4.2 05:27:38 10° W 05:31:00 38° SSW 05:33:15 18° SE
STARLINK-29 2.9 05:27:50 10° WSW 05:31:10 80° SSE 05:33:59 14° ENE
Cosmos 1605 Rocket 3.9 05:25:14 10° N 05:31:25 70° E 05:37:36 10° SSE
STARLINK-37 4.5 05:28:08 10° NNW 05:31:36 31° NE 05:33:38 19° E
Cosmos 1844 Rocket 4.3 05:26:44 10° SW 05:31:59 39° WNW 05:37:12 10° N
STARLINK-1297 4.2 05:30:19 10° W 05:33:40 37° SSW 05:35:48 19° SE
Sich 1 3.1 05:29:22 10° N 05:33:42 61° E 05:38:09 10° SSE
STARLINK-26 4.5 05:31:10 10° WSW 05:34:18 29° SSW 05:36:13 18° SE
STARLINK-68 4.4 05:31:20 10° NNW 05:34:52 34° NE 05:36:47 21° E
STARLINK-1310 3.6 05:30:48 10° WNW 05:35:01 87° SSW 05:37:49 21° ESE
STARLINK-28 4.5 05:33:05 10° WSW 05:35:56 27° S 05:37:31 18° SSE
STARLINK-63 4.4 05:32:56 10° NNW 05:36:27 33° NE 05:38:18 22° E
SMAP 3.9 05:32:36 12° SE 05:36:29 30° E 05:40:36 10° NNE
STARLINK-35 4.4 05:34:27 10° NNW 05:37:57 33° NE 05:39:43 22° E
STARLINK-41 4.4 05:35:07 10° WSW 05:37:59 28° SSW 05:39:29 19° SSE
STARLINK-51 4.4 05:36:07 10° NNW 05:39:39 34° NE 05:41:22 23° E
STARLINK-1319 3.7 05:35:47 10° WNW 05:39:59 81° SSW 05:42:36 23° ESE
Cosmos 2322 4.3 05:35:19 10° NW 05:40:55 57° WSW 05:46:35 10° SSE
Cosmos 1346 Rocket 3.3 05:37:11 10° NNW 05:41:07 61° WSW 05:45:08 10° S
PSLV R/B 4.3 05:37:04 10° S 05:41:16 67° WSW 05:45:20 10° NNW
STARLINK-30 4.3 05:37:43 10° NNW 05:41:16 35° NE 05:42:55 24° E
STARLINK-48 4.0 05:37:41 10° W 05:41:33 50° SSW 05:43:52 22° SE
STARLINK-72 4.3 05:39:24 10° NNW 05:42:59 36° NE 05:44:35 25° E
Cosmos 2360 Rocket 3.7 05:39:02 10° WNW 05:44:09 33° SW 05:49:19 10° SSE
STARLINK-1277 3.7 05:40:45 10° WNW 05:44:58 76° SSW 05:47:22 25° SE
STARLINK-59 4.1 05:42:38 10° NNW 05:46:17 40° NE 05:47:48 27° E
Cosmos 2056 Rocket 3.5 05:41:21 10° SSW 05:46:42 59° ESE 05:51:54 10° NE
STARLINK-56 4.1 05:44:13 10° NNW 05:47:51 39° NE 05:49:17 28° E
ATLAS 2AS CENTAUR R/B 3.6 05:42:56 10° SSW 05:48:26 28° SSE 05:51:07 22° ESE
STARLINK-73 4.1 05:45:50 10° NNW 05:49:30 41° NE 05:50:52 29° E
STARLINK-1276 3.7 05:45:45 10° WNW 05:49:57 72° SSW 05:52:09 27° SE
STARLINK-1291 4.4 05:47:34 10° WSW 05:50:38 30° SSW 05:51:51 24° SSE
STARLINK-38 4.0 05:47:27 10° NNW 05:51:08 42° NE 05:52:27 30° E
STARLINK-1317 4.5 05:48:32 10° WSW 05:51:48 32° SSW 05:53:10 24° SSE
SL-24 R/B 4.4 05:46:52 10° N 05:51:55 88° W 05:56:51 10° S
NOAA 6 4.0 05:46:53 10° SSE 05:52:07 83° ENE 05:57:17 10° NNW
STARLINK-1019 4.4 05:48:32 10° NNW 05:52:24 36° NE 05:53:46 28° E
STARLINK-1264 4.4 05:49:28 10° WSW 05:52:33 30° SSW 05:53:41 24° SSE
STARLINK-24 4.0 05:48:46 10° NW 05:52:41 47° NE 05:54:10 31° E
STARLINK-65 4.0 05:49:05 10° NNW 05:52:47 43° NE 05:54:03 32° E
STARLINK-33 4.5 05:50:55 10° WSW 05:53:43 25° S 05:54:33 23° SSE
CZ-2C R/B 3.6 05:53:39 25° ESE 05:53:54 25° ESE 05:58:12 10° S
MOS 1-B 4.5 05:48:05 10° SSE 05:53:59 80° WSW 05:59:49 10° NNW
SJ-7 4.3 05:50:23 10° SSE 05:54:29 89° WSW 05:58:31 10° NNW
STARLINK-1267 4.4 05:51:25 10° WSW 05:54:30 30° SSW 05:55:35 25° SSE
STARLINK-53 3.9 05:50:56 10° NW 05:54:42 47° NE 05:55:58 33° E
STARLINK-1305 3.8 05:50:45 10° WNW 05:54:57 68° SSW 05:56:57 30° SE
STARLINK-25 3.9 05:52:33 10° NNW 05:56:08 43° NE 05:57:08 35° E
STARLINK-1272 4.4 05:53:19 10° WSW 05:56:24 30° SSW 05:57:24 25° SSE
STARLINK-1012 4.3 05:53:25 10° NNW 05:57:20 39° NE 05:58:32 32° E
STARLINK-64 3.9 05:54:04 10° W 05:57:34 46° SSW 05:58:52 31° SSE
Cosmos 1818 3.7 05:52:35 10° NNW 05:57:51 55° ENE 06:00:42 26° SE
STARLINK-1207 4.4 05:55:15 10° WSW 05:58:20 29° SSW 05:59:15 25° SSE
STARLINK-1278 4.0 05:54:29 10° WNW 05:58:45 59° SSW 06:00:43 30° SE
STARLINK-1262 3.9 05:55:46 10° WNW 05:59:56 64° SSW 06:01:44 32° SE
Cosmos 1666 Rocket 3.4 05:55:47 10° N 06:00:11 79° E 06:04:37 10° SSE
STARLINK-1266 4.4 05:57:15 10° WSW 06:00:19 29° SSW 06:01:09 26° SSE
STARLINK-1280 4.1 05:56:20 10° WNW 06:00:36 58° SSW 06:02:29 31° SE
Shenzhou-11 Module 2.6 05:58:44 10° WNW 06:01:10 35° N 06:01:12 35° N
H-2A R/B 4.3 05:58:03 10° S 06:01:45 30° WSW 06:05:17 10° NW
Cosmos 1633 Rocket 3.0 05:57:53 10° N 06:02:18 69° E 06:06:32 12° SSE
STARLINK-1284 4.4 05:59:16 10° WSW 06:02:20 29° SSW 06:03:04 26° SSE
YAOGAN 6 3.1 06:03:03 39° ENE 06:03:03 39° ENE 06:06:27 10° NNE
ALOS 4.3 05:59:14 10° S 06:03:12 27° WSW 06:07:07 10° WNW
BREEZE-M DEB (TANK) 3.9 05:59:31 10° WSW 06:03:28 72° NNW 06:18:39 10° NE
STARLINK-1258 4.4 06:01:13 10° WSW 06:04:16 28° S 06:04:55 26° S
STARLINK-1300 3.9 06:00:44 10° WNW 06:04:54 60° SSW 06:06:29 35° SE
Centaur D AC-29 4.1 05:59:25 10° NW 06:05:05 15° NNW 06:08:14 10° NNE
STARLINK-1292 4.4 06:03:12 10° WSW 06:06:15 28° S 06:06:49 27° S
STARLINK-1026 4.1 06:03:14 10° NW 06:07:15 47° NE 06:08:08 40° ENE
STARLINK-52 3.5 06:04:04 10° WSW 06:07:19 59° NW 06:08:30 34° NNE
Cosmos 2219 Rocket 2.9 06:01:53 10° NW 06:07:28 54° WSW 06:13:00 11° SSE
Cosmos 2100 Rocket 4.0 06:02:09 10° NNE 06:08:11 55° E 06:14:15 10° SSE
STARLINK-1274 4.5 06:05:14 10° WSW 06:08:17 28° S 06:08:46 27° S
STARLINK-50 3.7 06:04:48 10° NW 06:08:48 58° NE 06:09:41 46° E
Cosmos 1680 Rocket 3.9 06:03:37 10° NNW 06:08:54 65° WSW 06:14:00 11° SSE
STARLINK-1338 3.4 06:06:15 10° SW 06:09:51 53° SSE 06:10:05 52° SE
STARLINK-1295 4.0 06:05:47 10° WNW 06:09:56 57° SSW 06:11:18 37° SE
STARLINK-1289 4.5 06:07:18 10° WSW 06:10:20 28° S 06:10:44 27° S
FALCON 9 DEB 3.2 06:08:38 10° WSW 06:12:11 80° NNW 06:12:55 53° NE
STARLINK-1013 3.9 06:08:07 10° NW 06:12:11 50° NE 06:12:52 45° ENE
STARLINK-1303 4.5 06:09:18 10° WSW 06:12:20 27° S 06:12:38 27° S
STARLINK-1287 4.1 06:10:46 10° WNW 06:14:54 54° SSW 06:16:03 40° SSE
STARLINK-1371 3.3 06:11:42 10° SW 06:15:19 57° SSE 06:15:21 57° SSE
Cosmos 1452 Rocket 3.9 06:12:03 10° S 06:17:05 41° ESE 06:17:29 40° ESE
STARLINK-1009 3.8 06:13:03 10° NW 06:17:09 55° NE 06:17:39 51° ENE
STARLINK-1341 3.4 06:14:26 10° SW 06:18:02 60° SSE 06:18:02 60° SSE
SL-4 R/B 4.2 06:16:36 10° W 06:19:36 22° NW 06:22:46 10° N
Cosmos 1420 Rocket 4.0 06:15:12 10° SSW 06:20:33 61° ESE 06:24:08 21° NE
STARLINK-1374 3.4 06:17:01 10° SW 06:20:30 61° S 06:20:30 61° S
STARLINK-1015 3.7 06:17:59 10° NW 06:22:07 59° NE 06:22:26 57° ENE
Cosmos 1980 3.6 06:16:43 10° NNW 06:22:24 83° ENE 06:25:39 27° SSE
CZ-4C R/B 4.2 06:18:39 10° SW 06:22:38 16° S 06:24:38 14° SSE
STARLINK-1339 3.4 06:19:44 10° SW 06:23:09 61° S 06:23:09 61° S
STARLINK-1302 4.2 06:20:48 10° W 06:24:54 49° SSW 06:25:38 43° SSE
Cosmos 2061 Rocket 4.2 06:19:02 10° NNE 06:25:01 48° E 06:28:12 26° SSE
Cosmos 1238 Rocket 3.0 06:20:49 10° NNW 06:25:20 74° W 06:27:18 28° S
STARLINK-1377 3.5 06:21:56 10° SW 06:25:11 60° SSW 06:25:11 60° SSW
Envisat 2.9 06:21:19 15° SSE 06:25:42 81° ENE 06:30:50 10° NNW
STARLINK-1016 3.6 06:22:56 10° NW 06:27:05 64° NE 06:27:13 64° NE
STARLINK-1320 3.9 06:24:52 10° WSW 06:27:09 43° SW 06:27:09 43° SW
STARLINK-1353 3.6 06:24:36 10° WSW 06:27:46 58° SSW 06:27:46 58° SSW
STARLINK-1322 3.9 06:25:11 10° WSW 06:27:28 42° SW 06:27:28 42° SW
STARLINK-1324 4.0 06:25:32 10° WSW 06:27:47 42° SW 06:27:47 42° SW
STARLINK-1294 4.0 06:25:54 10° WSW 06:28:05 40° SW 06:28:05 40° SW
STARLINK-1261 4.0 06:26:12 10° WSW 06:28:27 41° SW 06:28:27 41° SW
Feng Yun 1-1 Rocket 4.2 06:27:59 40° SE 06:29:40 57° ENE 06:35:02 10° N
STARLINK-1325 4.0 06:26:31 10° WSW 06:28:45 41° SW 06:28:45 41° SW
Meteor 1-20 Rocket 4.3 06:24:16 10° N 06:29:53 58° E 06:32:29 32° SSE
STARLINK-1273 4.2 06:25:50 10° W 06:29:55 47° SSW 06:30:25 44° S
STARLINK-1333 4.0 06:26:54 10° WSW 06:29:07 40° SW 06:29:07 40° SW
STARLINK-1334 4.0 06:27:14 10° WSW 06:29:26 40° SW 06:29:26 40° SW
Cosmos 2297 3.9 06:25:06 10° SSW 06:30:33 45° SE 06:30:33 45° SE
STARLINK-1326 4.1 06:27:34 10° WSW 06:29:45 40° SW 06:29:45 40° SW
USA 40 PKM 4.2 06:26:20 10° NW 06:30:49 79° SW 06:31:05 72° SSE
STARLINK-1323 4.1 06:27:53 10° WSW 06:30:04 39° SW 06:30:04 39° SW
NOSS 0 Rocket 4.1 06:24:56 10° NNW 06:31:12 76° WSW 06:35:22 23° SSE
STARLINK-1349 4.1 06:28:15 10° WSW 06:30:25 39° SW 06:30:25 39° SW
STARLINK-1375 3.7 06:27:45 10° WSW 06:30:53 58° SSW 06:30:53 58° SSW
STARLINK-1336 4.1 06:28:34 10° WSW 06:30:43 39° SW 06:30:43 39° SW
STARLINK-1008 3.6 06:27:53 10° NW 06:32:01 70° NNE 06:32:01 70° NNE
STARLINK-1331 4.1 06:28:57 10° WSW 06:31:06 38° SW 06:31:06 38° SW
STARLINK-1344 4.2 06:29:18 10° WSW 06:31:25 38° SW 06:31:25 38° SW
STARLINK-1343 4.2 06:29:35 10° WSW 06:31:42 38° SW 06:31:42 38° SW
Helios 1A Rocket 2.8 06:33:10 70° NE 06:33:10 70° NE 06:36:56 10° N
STARLINK-1346 4.3 06:30:00 10° WSW 06:32:01 36° SW 06:32:01 36° SW
STARLINK-1328 4.2 06:30:16 10° WSW 06:32:21 37° SW 06:32:21 37° SW
STARLINK-1350 3.8 06:30:02 10° WSW 06:32:59 54° SW 06:32:59 54° SW
STARLINK-1354 4.3 06:30:35 10° WSW 06:32:39 36° SW 06:32:39 36° SW
STARLINK-81 3.5 06:29:55 10° NW 06:33:34 76° NNW 06:33:34 76° NNW
STARLINK-1347 4.3 06:30:57 10° WSW 06:33:01 36° SW 06:33:01 36° SW
Cosmos 1461 3.7 06:30:27 10° SW 06:34:16 46° WNW 06:36:32 21° N
STARLINK-1357 4.3 06:31:17 10° WSW 06:33:19 36° SW 06:33:19 36° SW
STARLINK-1335 4.3 06:31:41 10° WSW 06:33:42 36° SW 06:33:42 36° SW
STARLINK-1288 4.3 06:30:50 10° W 06:34:53 45° SSW 06:35:11 44° S
STARLINK-1327 4.3 06:31:56 10° WSW 06:33:58 35° WSW 06:33:58 35° WSW
STARLINK-54 3.5 06:31:32 10° WNW 06:35:11 77° WNW 06:35:11 77° WNW
Cosmos 2016 Rocket 4.0 06:29:22 10° NNE 06:35:30 57° E 06:39:14 25° SSE
STARLINK-1340 4.3 06:32:17 10° WSW 06:34:18 35° WSW 06:34:18 35° WSW
STARLINK-1356 4.4 06:32:38 10° WSW 06:34:38 35° WSW 06:34:38 35° WSW
STARLINK-1345 4.4 06:32:58 10° WSW 06:34:57 35° WSW 06:34:57 35° WSW
STARLINK-1352 3.9 06:32:45 10° WSW 06:35:37 51° SW 06:35:37 51° SW
STARLINK-1355 4.4 06:33:17 10° WSW 06:35:16 34° WSW 06:35:16 34° WSW
STARLINK-1321 4.4 06:33:39 10° WSW 06:35:37 34° WSW 06:35:37 34° WSW
STARLINK-77 3.6 06:32:58 10° NW 06:36:31 72° NW 06:36:31 72° NW
STARLINK-1014 3.6 06:32:50 10° NW 06:36:51 73° N 06:36:51 73° N
STARLINK-1358 4.4 06:33:59 10° WSW 06:35:55 34° WSW 06:35:55 34° WSW
Cosmos 2173 Rocket 3.9 06:31:02 10° N 06:37:20 84° E 06:43:37 10° S
USA 234 4.1 06:34:22 27° SSE 06:37:22 41° SSW 06:43:27 10° W
STARLINK-1332 4.5 06:34:23 10° WSW 06:36:18 33° WSW 06:36:18 33° WSW
STARLINK-1348 4.5 06:34:40 10° WSW 06:36:35 33° WSW 06:36:35 33° WSW
COSMOS 2428 4.0 06:33:27 10° WNW 06:38:46 37° SW 06:43:21 14° S
STARLINK-1368 4.1 06:35:32 10° WSW 06:38:16 48° SW 06:38:16 48° SW
STARLINK-1308 4.4 06:35:54 10° W 06:39:56 43° SSW 06:40:00 43° SSW
STARLINK-1010 3.7 06:36:20 10° NW 06:40:25 78° NNW 06:40:25 78° NNW
Lacrosse 5 rocket 2.5 06:37:25 10° NNW 06:40:18 34° N 06:40:18 34° N
STARLINK-79 3.8 06:37:53 10° WNW 06:41:14 64° WNW 06:41:14 64° WNW
STARLINK-1369 4.2 06:38:18 10° WSW 06:40:57 45° SW 06:40:57 45° SW
STARLINK-1025 3.8 06:37:49 10° NW 06:41:36 70° NNW 06:41:36 70° NNW
DMSP B5D2-2 4.2 06:42:44 57° SE 06:42:44 57° SE 06:47:21 10° S
STARLINK-78 3.9 06:39:30 10° WNW 06:42:46 61° WNW 06:42:46 61° WNW
COSMOS 2455 4.5 06:39:05 10° SSW 06:42:03 19° SSE 06:42:03 19° SSE
ATLAS 5 CENTAUR R/B 2.5 06:36:56 10° NNW 06:44:08 83° NE 06:46:25 46° SE
Cosmos 1459 Rocket 3.9 06:38:14 10° N 06:44:28 88° W 06:50:55 10° S
STARLINK-1372 4.3 06:41:06 10° WSW 06:43:39 42° WSW 06:43:39 42° WSW
STARLINK-57 4.0 06:41:15 10° WNW 06:44:29 58° WNW 06:44:29 58° WNW
STARLINK-61 4.4 06:41:52 10° W 06:45:19 44° SW 06:45:19 44° SW
STARLINK-49 4.0 06:42:48 10° WNW 06:45:57 56° WNW 06:45:57 56° WNW
STARLINK-1017 3.9 06:42:45 10° NW 06:46:20 64° NW 06:46:20 64° NW
CZ-4B R/B 4.2 06:42:40 10° S 06:47:53 46° WSW 06:53:08 10° NW
STARLINK-1378 4.5 06:44:14 10° WSW 06:46:44 40° WSW 06:46:44 40° WSW
STARLINK-27 4.1 06:44:22 10° WNW 06:47:26 53° WNW 06:47:26 53° WNW
Cosmos 371 Rocket 3.6 06:43:47 10° SSW 06:47:37 53° S 06:47:37 53° S
SL-24 R/B - RUBIN 2 3.9 06:44:04 10° NNW 06:48:23 60° N 06:48:23 60° N
Cosmos 1470 Rocket 3.8 06:44:55 10° NNW 06:49:25 70° W 06:50:25 52° SSW
STARLINK-74 4.2 06:46:02 10° WNW 06:49:02 51° WNW 06:49:02 51° WNW
Cosmos 2237 Rocket 2.5 06:44:54 10° NW 06:50:33 66° WSW 06:52:55 35° S
CORIOLIS 4.3 06:47:22 20° S 06:51:19 75° WSW 06:56:45 10° NNW
STARLINK-39 4.3 06:47:38 10° WNW 06:50:34 48° WNW 06:50:34 48° WNW
Cosmos 1943 Rocket 3.7 06:46:34 10° SSW 06:48:59 22° S 06:48:59 22° S
STARLINK-1023 4.2 06:47:44 10° WNW 06:51:07 57° WNW 06:51:07 57° WNW
STARLINK-31 4.4 06:49:17 10° WNW 06:52:08 46° W 06:52:08 46° W
Cosmos 2369 Rocket 4.0 06:48:28 10° S 06:50:30 19° S 06:50:30 19° S
NOAA 12 4.3 06:53:40 27° S 06:56:37 70° WSW 07:01:51 10° NNW
STARLINK-1007 4.4 06:52:44 10° WNW 06:55:56 51° WNW 06:55:56 51° WNW
ATLAS CENTAUR R/B 3.8 06:53:26 10° SSW 06:54:47 17° S 06:54:47 17° S
BREEZE-M DEB (TANK) 4.4 06:44:02 10° NW 06:59:03 54° NNE 06:59:38 53° NE
Okean O Rocket 3.7 07:01:20 10° S 07:04:59 25° WSW 07:08:37 10° WNW
SL-16 R/B 2.8 07:00:28 10° NNW 07:04:24 44° N 07:04:24 44° N
IRS-1C Rocket 4.2 07:09:07 65° SSW 07:09:40 71° WSW 07:14:56 10° NNW
Cosmos 1802 Rocket 4.3 07:04:47 10° NNW 07:11:13 70° W 07:17:44 10° S
Cosmos 2333 Rocket 4.3 07:07:36 10° W 07:11:56 21° SW 07:15:33 13° S
BREEZE M DEB (TANK) 3.9 06:48:36 10° WSW 07:11:59 88° SSE 07:13:12 66° ENE
Cosmos 1725 Rocket 3.9 07:07:28 10° N 07:13:47 87° E 07:13:48 87° E
NOSS 3-4 (A) 3.7 07:06:37 10° SW 07:13:17 63° SSE 07:13:17 63° SSE
NOSS 3-4 (C) 3.7 07:06:43 10° SW 07:13:20 62° SSE 07:13:20 62° SSE
Cosmos 2278 Rocket 4.1 07:09:33 10° SW 07:14:17 28° WNW 07:19:00 10° NNW
Cosmos 2346 Rocket 4.5 07:09:34 10° SSW 07:15:44 75° W 07:21:48 10° N
Cosmos 967 Rocket 4.3 07:09:30 10° NW 07:15:39 86° WNW 07:15:39 86° WNW
CZ-2C R/B 3.6 07:35:11 44° SW 07:35:11 44° SW 07:39:11 10° SSW
Tsikada Rocket 4.3 07:28:05 10° SSW 07:33:32 62° SW 07:33:32 62° SW
ATLAS 2AS CENTAUR R/B 3.0 07:33:29 10° SW 07:38:35 57° SSW 07:38:35 57° SSW
ATLAS 5 CENTAUR R/B 4.2 08:23:27 10° W 08:27:59 29° WSW 08:27:59 29° WSW
